period_start,C,m1,H,J0,J1,J2,J3,J4,J5,JA,JB,JC,JD,JJ,JK,JN,#
2015-02-18 00:02:03,0.18,0.66,0.00,23.40,27.62,30.63,4.83,27.35,1025.61,2030.98,3157.54,3125.12,3394.13,350.14,350.35,3.85,0000 0000 0000 0000 000000
2015-02-18 00:07:04,0.18,0.66,0.00,23.07,27.65,30.82,4.90,27.32,1025.53,2030.98,3155.24,3123.51,3392.38,350.57,351.00,3.88,0000 0000 0000 0000 000000
2015-02-18 00:12:05,0.17,0.67,0.00,22.89,27.65,30.81,4.81,27.38,1025.42,2030.98,3153.00,3121.91,3390.81,349.53,350.45,3.91,0000 0000 0000 0000 000000
2015-02-18 00:17:07,0.17,0.67,0.00,22.99,27.65,30.62,4.83,27.42,1025.41,2030.98,3150.93,3120.47,3389.31,349.85,350.50,3.94,0000 0000 0000 0000 000000
2015-02-18 00:22:08,0.16,0.68,0.00,22.92,27.65,30.48,4.88,27.42,1025.42,2030.99,3148.93,3119.14,3387.76,350.13,350.94,3.97,0000 0000 0000 0000 000000
2015-02-18 00:27:09,0.18,0.68,0.00,22.66,27.62,30.36,4.87,27.32,1025.43,2030.99,3146.83,3117.62,3386.11,349.83,350.93,4.00,0000 0000 0000 0000 000000
2015-02-18 00:32:11,0.17,0.69,0.00,22.54,27.62,30.26,4.84,27.47,1025.42,2030.99,3144.63,3116.01,3384.46,350.30,351.49,4.03,0000 0000 0000 0000 000000
2015-02-18 00:37:12,0.18,0.69,0.00,22.52,27.61,30.21,4.88,27.40,1025.43,2030.99,3142.41,3114.52,3382.69,350.15,351.42,4.05,0000 0000 0000 0000 000000
2015-02-18 00:42:13,0.20,0.70,0.00,22.58,27.60,30.23,4.87,27.63,1025.42,2030.99,3140.04,3112.79,3380.87,350.01,351.25,4.08,0000 0000 0000 0000 000000
2015-02-18 00:47:15,0.16,0.70,0.00,22.62,27.60,30.22,4.87,27.54,1025.42,2030.99,3137.90,3111.26,3379.18,350.44,351.48,4.11,0000 0000 0000 0000 000000
2015-02-18 00:52:16,0.19,0.71,0.00,22.63,27.60,30.20,4.78,27.47,1025.41,2030.99,3135.75,3109.65,3377.42,349.86,351.07,4.14,0000 0000 0000 0000 000000
2015-02-18 00:57:18,0.18,0.71,0.00,23.19,27.62,30.52,4.83,27.45,1025.42,2030.98,3133.58,3107.96,3375.57,350.01,350.49,4.17,0000 0000 0000 0000 000000
2015-02-18 01:02:19,0.19,0.72,0.00,23.41,27.63,30.65,4.86,27.30,1025.43,2030.98,3131.30,3106.27,3373.68,350.22,350.51,4.20,0000 0000 0000 0000 000000
2015-02-18 01:07:20,0.18,0.73,0.00,23.08,27.65,30.77,4.87,27.34,1025.47,2030.96,3129.04,3104.67,3371.99,349.83,350.48,4.23,0000 0000 0000 0000 000000
2015-02-18 01:12:21,0.18,0.73,0.00,22.86,27.65,30.74,4.90,27.45,1025.45,2030.94,3126.76,3103.02,3370.27,350.23,351.11,4.26,0000 0000 0000 0000 000000
2015-02-18 01:17:22,0.18,0.74,0.00,22.90,27.65,30.65,4.83,27.38,1025.43,2030.96,3124.57,3101.52,3368.60,349.83,350.64,4.29,0000 0000 0000 0000 000000
2015-02-18 01:22:23,0.15,0.74,0.00,22.93,27.64,30.51,4.81,27.44,1025.43,2030.98,3122.64,3100.18,3367.08,349.77,350.93,4.32,0000 0000 0000 0000 000000
2015-02-18 01:27:25,0.17,0.75,0.00,22.69,27.62,30.33,4.83,27.38,1025.42,2030.98,3120.64,3098.72,3365.53,350.45,351.50,4.35,0000 0000 0000 0000 000000
2015-02-18 01:32:26,0.17,0.75,0.00,22.59,27.62,30.26,4.85,27.59,1025.39,2030.99,3118.53,3097.20,3363.87,350.13,351.30,4.38,0000 0000 0000 0000 000000
2015-02-18 01:37:27,0.19,0.76,0.00,22.54,27.60,30.19,4.92,27.47,1025.39,2030.99,3116.33,3095.64,3362.10,350.42,351.71,4.41,0000 0000 0000 0000 000000
2015-02-18 01:42:29,0.18,0.76,0.00,22.60,27.60,30.17,4.82,27.69,1025.39,2030.98,3114.07,3093.96,3360.37,349.68,350.85,4.44,0000 0000 0000 0000 000000
2015-02-18 01:47:30,0.18,0.77,0.00,22.61,27.60,30.23,4.87,27.59,1025.40,2030.97,3112.01,3092.47,3358.67,350.32,351.36,4.46,0000 0000 0000 0000 000000
2015-02-18 01:52:31,0.19,0.77,0.00,22.71,27.60,30.30,4.86,27.37,1025.40,2030.97,3109.77,3090.80,3356.85,350.37,351.21,4.49,0000 0000 0000 0000 000000
2015-02-18 01:57:33,0.14,0.78,0.00,23.30,27.61,30.53,4.82,27.48,1025.40,2030.89,3107.62,3089.29,3355.10,349.93,350.15,4.52,0000 0000 0000 0000 000000
2015-02-18 02:02:34,0.18,0.78,0.00,23.34,27.62,30.63,4.89,27.54,1025.40,2030.80,3105.38,3087.65,3353.37,349.93,350.22,4.55,0000 0000 0000 0000 000000
2015-02-18 02:07:35,0.15,0.79,0.00,23.05,27.64,30.79,4.82,27.38,1025.40,2030.72,3103.17,3086.11,3351.68,349.88,350.52,4.58,0000 0000 0000 0000 000000
2015-02-18 02:12:36,0.20,0.79,0.00,22.91,27.65,30.70,4.88,27.48,1025.40,2030.80,3101.01,3084.64,3350.21,349.96,350.75,4.61,0000 0000 0000 0000 000000
2015-02-18 02:17:38,0.18,0.80,0.00,22.98,27.63,30.60,4.77,27.42,1025.39,2030.95,3099.05,3083.31,3348.63,350.05,350.86,4.64,0000 0000 0000 0000 000000
2015-02-18 02:22:39,0.16,0.80,0.00,22.96,27.62,30.42,4.82,27.54,1025.35,2030.97,3097.03,3081.85,3347.09,349.74,350.66,4.67,0000 0000 0000 0000 000000
2015-02-18 02:27:40,0.17,0.81,0.00,22.69,27.61,30.29,4.90,27.55,1025.33,2030.99,3095.08,3080.49,3345.54,350.74,351.60,4.70,0000 0000 0000 0000 000000
2015-02-18 02:32:42,0.19,0.81,0.00,22.63,27.60,30.26,4.86,27.64,1025.36,2030.98,3092.86,3078.87,3343.87,350.06,350.98,4.73,0000 0000 0000 0000 000000
2015-02-18 02:37:43,0.17,0.82,0.00,22.59,27.60,30.21,4.85,27.47,1025.38,2030.99,3090.69,3077.36,3342.21,349.71,351.05,4.76,0000 0000 0000 0000 000000
2015-02-18 02:42:44,0.19,0.82,0.00,22.61,27.58,30.20,4.88,27.63,1025.27,2030.98,3088.38,3075.71,3340.43,350.54,351.65,4.79,0000 0000 0000 0000 000000
2015-02-18 02:47:46,0.17,0.83,0.00,22.62,27.59,30.23,4.77,27.51,1025.22,2030.95,3086.25,3074.12,3338.68,349.19,350.34,4.82,0000 0000 0000 0000 000000
2015-02-18 02:52:48,0.19,0.84,0.00,22.82,27.60,30.30,4.83,27.65,1025.29,2030.95,3084.03,3072.53,3336.90,350.06,350.78,4.85,0000 0000 0000 0000 000000
2015-02-18 02:57:49,0.15,0.84,0.00,23.40,27.61,30.52,4.77,27.59,1025.27,2030.84,3081.87,3070.93,3335.12,349.65,349.83,4.87,0000 0000 0000 0000 000000
2015-02-18 03:02:50,0.16,0.85,0.00,23.46,27.63,30.61,4.79,27.35,1025.29,2030.64,3079.66,3069.38,3333.30,349.78,349.91,4.90,0000 0000 0000 0000 000000
2015-02-18 03:07:52,0.13,0.85,0.00,23.15,27.65,30.80,4.84,27.44,1025.24,2030.33,3077.36,3067.70,3331.51,350.09,350.61,4.93,0000 0000 0000 0000 000000
2015-02-18 03:12:53,0.17,0.85,0.00,22.97,27.65,30.80,4.97,27.64,1025.08,2030.19,3075.08,3066.14,3329.77,350.70,351.60,4.96,0000 0000 0000 0000 000000
2015-02-18 03:17:54,0.23,0.86,0.00,23.02,27.65,30.66,4.86,27.49,1024.99,2030.50,3073.05,3064.69,3328.33,350.06,350.75,4.99,0000 0000 0000 0000 000000
2015-02-18 03:22:55,0.20,0.87,0.00,23.04,27.63,30.52,4.84,27.63,1025.06,2030.84,3071.14,3063.41,3326.84,350.65,350.95,5.02,0000 0000 0000 0000 000000
2015-02-18 03:27:56,0.18,0.87,0.00,22.84,27.62,30.36,4.87,27.53,1025.08,2030.95,3069.17,3061.89,3325.37,350.11,350.97,5.05,0000 0000 0000 0000 000000
2015-02-18 03:32:58,0.17,0.88,0.00,22.67,27.62,30.26,4.79,27.54,1025.03,2030.95,3067.14,3060.48,3323.69,349.92,350.86,5.08,0000 0000 0000 0000 000000
2015-02-18 03:37:59,0.18,0.88,0.00,22.69,27.60,30.29,4.81,27.46,1024.93,2030.93,3064.95,3058.85,3321.96,349.50,350.36,5.11,0000 0000 0000 0000 000000
2015-02-18 03:43:01,0.16,0.89,0.00,22.70,27.60,30.20,4.86,27.65,1024.92,2030.89,3062.77,3057.31,3320.29,349.42,350.30,5.14,0000 0000 0000 0000 000000
2015-02-18 03:48:02,0.19,0.89,0.00,22.72,27.60,30.21,4.84,27.56,1024.92,2030.87,3060.71,3055.79,3318.59,350.42,351.24,5.17,0000 0000 0000 0000 000000
2015-02-18 03:53:03,0.14,0.90,0.00,23.28,27.61,30.46,4.80,27.47,1024.96,2030.66,3058.51,3054.14,3316.75,349.61,349.84,5.20,0000 0000 0000 0000 000000
2015-02-18 03:58:04,0.13,0.90,0.00,23.55,27.62,30.59,4.83,27.38,1024.95,2030.28,3056.38,3052.55,3314.95,350.03,350.02,5.23,0000 0000 0000 0000 000000
2015-02-18 04:03:06,0.16,0.91,0.00,23.29,27.65,30.73,4.80,27.41,1024.93,2030.13,3054.15,3050.92,3313.32,349.51,349.69,5.26,0000 0000 0000 0000 000000
2015-02-18 04:08:07,0.17,0.91,0.00,23.04,27.65,30.77,4.79,27.47,1024.92,2030.08,3052.00,3049.47,3311.70,350.20,350.63,5.28,0000 0000 0000 0000 000000
2015-02-18 04:13:08,0.17,0.92,0.00,23.06,27.65,30.64,4.80,27.41,1024.94,2030.09,3049.81,3047.94,3310.00,350.18,350.72,5.31,0000 0000 0000 0000 000000
2015-02-18 04:18:10,0.22,0.92,0.00,23.12,27.63,30.53,4.85,27.44,1024.98,2030.32,3047.84,3046.60,3308.57,349.97,350.38,5.34,0000 0000 0000 0000 000000
2015-02-18 04:23:11,0.18,0.93,0.00,22.93,27.62,30.34,4.88,27.52,1024.94,2030.53,3045.89,3045.17,3306.97,350.11,350.66,5.37,0000 0000 0000 0000 000000
2015-02-18 04:28:13,0.18,0.94,0.00,22.74,27.61,30.26,4.83,27.52,1024.95,2030.53,3043.87,3043.72,3305.41,349.96,350.80,5.40,0000 0000 0000 0000 000000
2015-02-18 04:33:14,0.16,0.94,0.00,22.70,27.60,30.24,4.81,27.51,1024.97,2030.51,3041.73,3042.23,3303.71,349.47,350.53,5.43,0000 0000 0000 0000 000000
2015-02-18 04:38:15,0.16,0.95,0.00,22.70,27.60,30.18,4.77,27.55,1024.94,2030.32,3039.67,3040.63,3302.01,349.42,350.18,5.46,0000 0000 0000 0000 000000
2015-02-18 04:43:17,0.14,0.95,0.00,23.02,27.60,30.37,4.83,27.67,1024.92,2030.11,3037.47,3039.07,3300.33,349.73,350.13,5.49,0000 0000 0000 0000 000000
2015-02-18 04:48:18,0.18,0.95,0.00,23.58,27.62,30.45,4.80,27.46,1024.92,2030.06,3035.49,3037.54,3298.60,350.04,349.76,5.52,0000 0000 0000 0000 000000
2015-02-18 04:53:19,0.17,0.96,0.00,23.51,27.63,30.58,4.75,27.49,1025.02,2030.03,3033.40,3035.96,3296.86,350.16,350.20,5.55,0000 0000 0000 0000 000000
2015-02-18 04:58:21,0.18,0.97,0.00,23.17,27.65,30.78,4.85,27.53,1025.24,2030.02,3031.20,3034.51,3295.36,350.07,350.50,5.58,0000 0000 0000 0000 000000
2015-02-18 05:03:22,0.17,0.97,0.00,23.04,27.65,30.78,4.81,27.45,1025.07,2030.02,3029.10,3033.04,3293.71,349.68,350.07,5.61,0000 0000 0000 0000 000000
2015-02-18 05:08:23,0.17,0.98,0.00,23.15,27.64,30.66,4.77,27.52,1024.95,2030.05,3027.10,3031.68,3292.25,349.77,350.45,5.64,0000 0000 0000 0000 000000
2015-02-18 05:13:24,0.19,0.98,0.00,23.16,27.62,30.48,4.85,27.64,1024.93,2030.22,3025.22,3030.33,3290.74,350.11,350.79,5.67,0000 0000 0000 0000 000000
2015-02-18 05:18:26,0.19,0.99,0.00,22.89,27.61,30.29,4.92,27.69,1024.92,2030.35,3023.22,3028.85,3289.19,350.38,350.94,5.70,0000 0000 0000 0000 000000
2015-02-18 05:23:27,0.15,0.99,0.00,22.76,27.60,30.28,4.84,27.58,1024.93,2030.20,3021.07,3027.37,3287.56,349.84,350.64,5.72,0000 0000 0000 0000 000000
2015-02-18 05:28:29,0.19,1.00,0.00,22.74,27.60,30.30,4.85,27.57,1024.92,2030.17,3019.04,3025.84,3285.86,349.97,350.78,5.75,0000 0000 0000 0000 000000
2015-02-18 05:33:30,0.16,1.00,0.00,22.71,27.60,30.24,4.81,27.60,1024.93,2030.26,3017.04,3024.48,3284.27,349.97,350.78,5.78,0000 0000 0000 0000 000000
2015-02-18 05:38:31,0.18,1.01,0.00,23.14,27.60,30.38,4.79,27.44,1024.93,2030.13,3014.94,3022.85,3282.52,349.99,350.37,5.81,0000 0000 0000 0000 000000
2015-02-18 05:43:32,0.16,1.01,0.00,23.57,27.61,30.48,4.83,27.37,1024.93,2030.02,3012.78,3021.23,3280.80,349.76,349.63,5.84,0000 0000 0000 0000 000000
2015-02-18 05:48:34,0.18,1.02,0.00,23.38,27.62,30.67,4.83,27.55,1024.94,2030.04,3010.82,3019.77,3279.28,350.16,350.10,5.87,0000 0000 0000 0000 000000
2015-02-18 05:53:35,0.17,1.02,0.00,23.06,27.62,30.74,4.83,27.56,1024.94,2030.03,3008.73,3018.35,3277.59,350.10,350.61,5.90,0000 0000 0000 0000 000000
2015-02-18 05:58:36,0.18,1.03,0.00,23.00,27.62,30.71,4.88,27.66,1024.93,2030.04,3006.79,3016.86,3276.03,350.21,350.58,5.93,0000 0000 0000 0000 000000
2015-02-18 06:03:38,0.16,1.03,0.00,23.09,27.62,30.58,4.76,27.68,1024.92,2030.05,3004.85,3015.58,3274.59,349.36,349.79,5.96,0000 0000 0000 0000 000000
2015-02-18 06:08:39,0.16,1.04,0.00,22.96,27.60,30.44,4.90,27.82,1024.92,2030.12,3003.03,3014.23,3273.15,350.19,350.72,5.99,0000 0000 0000 0000 000000
2015-02-18 06:13:41,0.19,1.04,0.00,22.79,27.59,30.31,4.80,27.75,1024.92,2030.11,3000.99,3012.72,3271.56,349.83,350.61,6.02,0000 0000 0000 0000 000000
2015-02-18 06:18:42,0.17,1.05,0.00,22.68,27.57,30.18,4.86,27.76,1024.92,2030.14,2998.97,3011.36,3269.95,349.81,350.79,6.05,0000 0000 0000 0000 000000
2015-02-18 06:23:43,0.18,1.05,0.00,22.74,27.57,30.22,4.91,27.65,1024.92,2030.11,2996.99,3009.81,3268.32,350.54,351.47,6.08,0000 0000 0000 0000 000000
2015-02-18 06:28:44,0.16,1.06,0.00,22.73,27.57,30.17,4.87,27.69,1024.92,2030.05,2995.01,3008.39,3266.64,350.24,350.89,6.11,0000 0000 0000 0000 000000
2015-02-18 06:33:46,0.16,1.06,0.00,23.13,27.57,30.34,4.80,27.61,1024.92,2030.02,2992.91,3006.95,3264.98,349.84,350.23,6.13,0000 0000 0000 0000 000000
2015-02-18 06:38:47,0.18,1.07,0.00,23.53,27.57,30.46,4.83,27.47,1024.93,2030.01,2990.92,3005.54,3263.45,349.84,349.74,6.16,0000 0000 0000 0000 000000
2015-02-18 06:43:48,0.18,1.07,0.00,23.34,27.60,30.63,4.83,27.47,1025.10,2030.00,2988.68,3003.92,3261.85,350.03,350.32,6.19,0000 0000 0000 0000 000000
2015-02-18 06:48:50,0.17,1.08,0.00,23.03,27.60,30.73,4.80,27.64,1025.09,2030.00,2986.67,3002.56,3260.42,350.57,351.20,6.22,0000 0000 0000 0000 000000
2015-02-18 06:53:51,0.17,1.08,0.00,22.99,27.60,30.67,4.85,27.64,1025.06,2030.02,2984.70,3001.17,3258.84,349.89,350.47,6.25,0000 0000 0000 0000 000000
2015-02-18 06:58:52,0.16,1.09,0.00,23.07,27.58,30.53,4.86,27.57,1025.02,2030.03,2982.81,2999.84,3257.40,349.74,349.99,6.28,0000 0000 0000 0000 000000
2015-02-18 07:03:54,0.17,1.09,0.00,22.92,27.57,30.38,4.94,27.52,1025.17,2030.08,2981.02,2998.59,3255.98,350.29,351.02,6.31,0000 0000 0000 0000 000000
2015-02-18 07:08:55,0.18,1.10,0.00,22.69,27.55,30.24,4.83,27.48,1025.11,2030.18,2979.07,2997.21,3254.49,350.36,351.19,6.34,0000 0000 0000 0000 000000
2015-02-18 07:13:56,0.16,1.10,0.00,22.57,27.55,30.12,4.84,27.46,1025.18,2030.13,2977.13,2995.81,3252.92,350.16,351.24,6.37,0000 0000 0000 0000 000000
2015-02-18 07:18:57,0.18,1.11,0.00,22.56,27.53,30.08,4.81,27.52,1025.25,2030.17,2975.26,2994.43,3251.42,349.85,350.99,6.40,0000 0000 0000 0000 000000
2015-02-18 07:23:59,0.15,1.12,0.00,22.57,27.52,30.06,4.79,27.57,1025.17,2030.11,2973.33,2992.98,3249.83,349.18,350.40,6.43,0000 0000 0000 0000 000000
2015-02-18 07:29:00,0.17,1.12,0.00,22.70,27.52,30.13,4.77,27.55,1025.04,2030.04,2971.34,2991.55,3248.22,349.92,350.87,6.46,0000 0000 0000 0000 000000
2015-02-18 07:34:02,0.18,1.13,0.00,23.16,27.54,30.40,4.81,27.69,1025.05,2030.03,2969.25,2989.99,3246.59,349.67,350.06,6.49,0000 0000 0000 0000 000000
2015-02-18 07:39:03,0.18,1.13,0.00,23.47,27.55,30.51,4.79,27.51,1025.14,2030.00,2967.23,2988.54,3244.92,349.75,349.85,6.52,0000 0000 0000 0000 000000
2015-02-18 07:44:05,0.17,1.14,0.00,23.20,27.56,30.67,4.84,27.63,1025.06,2030.00,2965.16,2986.98,3243.29,350.07,350.53,6.54,0000 0000 0000 0000 000000
2015-02-18 07:49:06,0.16,1.14,0.00,22.93,27.57,30.72,4.83,27.61,1025.11,2030.01,2963.42,2985.69,3241.81,350.05,350.43,6.57,0000 0000 0000 0000 000000
2015-02-18 07:54:07,0.16,1.15,0.00,22.97,27.57,30.62,4.82,27.66,1025.18,2030.01,2961.53,2984.41,3240.44,349.55,350.21,6.60,0000 0000 0000 0000 000000
2015-02-18 07:59:08,0.16,1.15,0.00,23.05,27.55,30.50,4.77,27.62,1025.09,2030.03,2959.66,2983.20,3239.07,350.27,350.76,6.63,0000 0000 0000 0000 000000
2015-02-18 08:04:10,0.18,1.16,0.00,22.81,27.55,30.25,4.78,27.58,1025.14,2030.08,2957.84,2981.83,3237.65,349.80,350.69,6.66,0000 0000 0000 0000 000000
2015-02-18 08:09:11,0.16,1.16,0.00,22.59,27.52,30.15,4.84,27.61,1025.27,2030.07,2955.89,2980.47,3236.04,350.74,351.79,6.69,0000 0000 0000 0000 000000
2015-02-18 08:14:13,0.17,1.17,0.00,22.54,27.52,30.17,4.86,27.52,1025.29,2030.06,2953.91,2978.98,3234.51,350.06,351.26,6.72,0000 0000 0000 0000 000000
2015-02-18 08:19:14,0.18,1.17,0.00,22.52,27.51,30.13,4.85,27.64,1025.32,2030.07,2951.90,2977.57,3233.04,349.69,351.03,6.75,0000 0000 0000 0000 000000
2015-02-18 08:24:15,0.16,1.18,0.00,22.51,27.50,30.08,4.87,27.68,1025.26,2030.06,2949.85,2976.17,3231.56,350.15,351.65,6.78,0000 0000 0000 0000 000000
2015-02-18 08:29:16,0.18,1.18,0.00,22.60,27.51,30.08,4.79,27.57,1025.14,2030.06,2947.84,2974.67,3229.91,349.99,351.32,6.81,0000 0000 0000 0000 000000
2015-02-18 08:34:18,0.16,1.19,0.00,22.85,27.52,30.30,4.83,27.52,1025.02,2030.03,2945.84,2973.20,3228.40,350.12,350.94,6.84,0000 0000 0000 0000 000000
2015-02-18 08:39:19,0.19,1.19,0.00,23.35,27.53,30.54,4.81,27.61,1025.14,2030.02,2943.91,2971.71,3226.73,349.43,349.64,6.87,0000 0000 0000 0000 000000
2015-02-18 08:44:20,0.17,1.20,0.00,23.19,27.55,30.64,4.86,27.51,1025.32,2030.00,2941.95,2970.19,3224.98,350.27,350.63,6.90,0000 0000 0000 0000 000000
2015-02-18 08:49:21,0.19,1.20,0.00,22.92,27.57,30.72,4.81,27.68,1025.34,2030.00,2939.96,2968.74,3223.49,349.93,350.66,6.93,0000 0000 0000 0000 000000
2015-02-18 08:54:23,0.15,1.21,0.00,22.88,27.57,30.64,4.87,27.57,1025.40,2030.00,2937.98,2967.47,3222.08,350.41,351.24,6.95,0000 0000 0000 0000 000000
2015-02-18 08:59:24,0.23,1.21,0.00,22.95,27.55,30.54,4.87,27.56,1025.40,2030.02,2935.56,2965.75,3220.28,350.06,350.76,6.98,0000 0000 0000 0000 000000
2015-02-18 09:04:25,0.21,1.22,0.00,22.79,27.55,30.38,4.89,27.54,1025.39,2030.06,2933.20,2964.02,3218.50,349.93,350.99,7.01,0000 0000 0000 0000 000000
2015-02-18 09:09:26,0.22,1.23,0.00,22.55,27.53,30.24,4.84,27.57,1025.39,2030.10,2930.91,2962.38,3216.55,349.95,351.13,7.04,0000 0000 0000 0000 000000
2015-02-18 09:14:27,0.23,1.23,0.00,22.47,27.52,30.10,4.83,27.65,1025.38,2030.05,2928.10,2960.43,3214.47,349.61,350.92,7.07,0000 0000 0000 0000 000000
2015-02-18 09:19:29,0.25,1.24,0.00,22.41,27.52,30.11,4.84,27.61,1025.38,2030.04,2925.31,2958.49,3212.42,350.05,351.39,7.10,0000 0000 0000 0000 000000
2015-02-18 09:24:30,0.27,1.25,0.00,22.39,27.52,30.07,4.80,27.52,1025.40,2030.04,2922.25,2956.32,3210.14,350.10,351.35,7.13,0000 0000 0000 0000 000000
2015-02-18 09:29:31,0.23,1.26,0.00,22.46,27.52,30.13,4.81,27.63,1025.35,2030.02,2919.57,2954.42,3208.04,349.74,350.85,7.16,0000 0000 0000 0000 000000
2015-02-18 09:34:32,0.23,1.26,0.00,22.48,27.52,30.15,4.92,27.67,1025.39,2030.02,2917.07,2952.56,3206.05,350.44,351.74,7.19,0000 0000 0000 0000 000000
2015-02-18 09:39:34,0.27,1.27,0.00,22.87,27.53,30.33,4.86,27.77,1025.39,2030.00,2914.00,2950.45,3203.82,349.93,350.71,7.22,0000 0000 0000 0000 000000
2015-02-18 09:44:35,0.25,1.28,0.00,23.30,27.55,30.58,4.88,27.70,1025.40,2030.00,2911.19,2948.38,3201.57,349.90,350.26,7.25,0000 0000 0000 0000 000000
2015-02-18 09:49:36,0.23,1.29,0.00,23.08,27.57,30.66,4.93,27.48,1025.40,2030.00,2908.48,2946.51,3199.54,350.40,350.98,7.28,0000 0000 0000 0000 000000
2015-02-18 09:54:38,0.24,1.29,0.00,22.80,27.57,30.70,4.81,27.57,1025.40,2030.00,2905.90,2944.69,3197.68,349.93,350.85,7.31,0000 0000 0000 0000 000000
2015-02-18 09:59:39,0.20,1.30,0.00,22.80,27.57,30.64,4.88,27.59,1025.40,2030.00,2903.40,2943.04,3195.82,350.44,351.34,7.34,0000 0000 0000 0000 000000
2015-02-18 10:04:40,0.21,1.31,0.00,22.88,27.57,30.49,4.77,27.53,1025.40,2030.00,2900.99,2941.43,3194.00,349.80,350.65,7.36,0000 0000 0000 0000 000000
2015-02-18 10:09:41,0.20,1.31,0.00,22.62,27.55,30.27,4.83,27.57,1025.41,2030.01,2898.75,2939.82,3192.31,349.43,350.59,7.39,0000 0000 0000 0000 000000
2015-02-18 10:14:43,0.19,1.32,0.00,22.41,27.54,30.14,4.88,27.64,1025.41,2030.02,2896.43,2938.18,3190.56,350.22,351.72,7.42,0000 0000 0000 0000 000000
2015-02-18 10:19:44,0.21,1.32,0.00,22.36,27.52,30.13,4.85,27.51,1025.40,2030.03,2894.18,2936.63,3188.87,349.79,351.26,7.45,0000 0000 0000 0000 000000
2015-02-18 10:24:45,0.18,1.33,0.00,22.33,27.52,30.06,4.91,27.61,1025.40,2030.03,2892.07,2935.12,3187.20,350.12,351.52,7.48,0000 0000 0000 0000 000000
2015-02-18 10:29:46,0.20,1.33,0.00,22.38,27.50,30.08,4.80,27.67,1025.40,2030.01,2889.88,2933.61,3185.51,349.82,351.13,7.51,0000 0000 0000 0000 000000
2015-02-18 10:34:47,0.19,1.34,0.00,22.38,27.50,30.03,4.86,27.58,1025.40,2030.02,2887.75,2932.03,3183.85,350.29,351.73,7.54,0000 0000 0000 0000 000000
2015-02-18 10:39:49,0.22,1.35,0.00,22.43,27.50,30.09,4.89,27.82,1025.40,2030.01,2885.47,2930.40,3182.01,350.12,351.39,7.57,0000 0000 0000 0000 000000
2015-02-18 10:44:50,0.19,1.35,0.00,22.66,27.51,30.25,4.87,27.68,1025.40,2030.00,2883.38,2928.78,3180.37,350.36,351.24,7.60,0000 0000 0000 0000 000000
2015-02-18 10:49:52,0.19,1.36,0.00,23.20,27.52,30.52,4.79,27.65,1025.41,2030.00,2881.26,2927.26,3178.67,350.16,350.62,7.63,0000 0000 0000 0000 000000
2015-02-18 10:54:53,0.21,1.36,0.00,23.20,27.55,30.67,4.79,27.42,1025.42,2030.00,2879.16,2925.61,3176.88,349.79,350.13,7.66,0000 0000 0000 0000 000000
2015-02-18 10:59:54,0.20,1.37,0.00,22.89,27.55,30.75,4.79,27.52,1025.42,2030.00,2877.01,2924.00,3175.18,349.97,350.79,7.69,0000 0000 0000 0000 000000
2015-02-18 11:04:55,0.20,1.38,0.00,22.78,27.55,30.68,4.84,27.66,1025.42,2030.00,2874.69,2922.37,3173.37,350.30,351.00,7.72,0000 0000 0000 0000 000000
2015-02-18 11:09:56,0.18,1.38,0.00,22.86,27.55,30.54,4.84,27.54,1025.41,2030.01,2872.54,2920.89,3171.78,350.33,351.19,7.75,0000 0000 0000 0000 000000
2015-02-18 11:14:58,0.19,1.39,0.00,22.70,27.55,30.37,4.87,27.70,1025.41,2030.02,2870.73,2919.56,3170.19,350.23,351.09,7.77,0000 0000 0000 0000 000000
2015-02-18 11:19:59,0.18,1.39,0.00,22.47,27.53,30.29,4.86,27.61,1025.41,2030.03,2868.77,2918.04,3168.57,350.11,351.60,7.80,0000 0000 0000 0000 000000
2015-02-18 11:25:00,0.20,1.40,0.00,22.35,27.52,30.15,4.77,27.55,1025.41,2030.03,2866.52,2916.56,3166.92,349.45,350.70,7.83,0000 0000 0000 0000 000000
2015-02-18 11:30:01,0.19,1.40,0.00,22.33,27.50,30.14,4.81,27.56,1025.40,2030.03,2864.58,2915.00,3165.16,349.22,350.77,7.86,0000 0000 0000 0000 000000
2015-02-18 11:35:02,0.19,1.41,0.00,22.32,27.50,30.08,4.86,27.67,1025.40,2030.01,2862.63,2913.51,3163.45,350.05,351.62,7.89,0000 0000 0000 0000 000000
2015-02-18 11:40:04,0.20,1.42,0.00,22.33,27.50,30.07,4.85,27.78,1025.40,2030.00,2860.42,2911.97,3161.76,349.98,351.26,7.92,0000 0000 0000 0000 000000
2015-02-18 11:45:05,0.19,1.42,0.00,22.38,27.50,30.08,4.87,27.79,1025.40,2030.00,2858.39,2910.36,3159.97,350.14,351.55,7.95,0000 0000 0000 0000 000000
2015-02-18 11:50:07,0.21,1.43,0.00,22.41,27.50,30.08,4.86,27.77,1025.40,2030.00,2856.22,2908.72,3158.22,349.76,351.16,7.98,0000 0000 0000 0000 000000
2015-02-18 11:55:08,0.21,1.43,0.00,22.86,27.52,30.37,4.84,27.63,1025.40,2030.00,2853.87,2907.03,3156.48,349.76,350.76,8.01,0000 0000 0000 0000 000000
2015-02-18 12:00:10,0.20,1.44,0.00,23.24,27.53,30.59,4.78,27.50,1025.41,2029.99,2851.78,2905.47,3154.69,349.68,350.24,8.04,0000 0000 0000 0000 000000
2015-02-18 12:05:11,0.21,1.45,0.00,23.02,27.55,30.70,4.83,27.55,1025.42,2029.99,2849.62,2903.82,3152.88,349.88,350.72,8.07,0000 0000 0000 0000 000000
2015-02-18 12:10:12,0.20,1.45,0.00,22.74,27.55,30.68,4.92,27.64,1025.42,2029.97,2847.34,2902.26,3151.11,350.89,351.89,8.10,0000 0000 0000 0000 000000
2015-02-18 12:15:13,0.23,1.46,0.00,22.76,27.55,30.61,4.86,27.59,1025.43,2029.97,2844.90,2900.52,3149.27,350.06,351.05,8.13,0000 0000 0000 0000 000000
2015-02-18 12:20:14,0.22,1.47,0.00,22.80,27.55,30.48,4.91,27.68,1025.42,2029.99,2842.46,2898.84,3147.49,350.30,350.87,8.16,0000 0000 0000 0000 000000
2015-02-18 12:25:15,0.22,1.47,0.00,22.54,27.53,30.24,4.93,27.68,1025.43,2029.99,2840.03,2897.09,3145.61,350.06,351.34,8.18,0000 0000 0000 0000 000000
2015-02-18 12:30:17,0.21,1.48,0.00,22.33,27.52,30.15,4.92,27.63,1025.42,2029.99,2837.64,2895.48,3143.69,349.99,351.48,8.21,0000 0000 0000 0000 000000
2015-02-18 12:35:18,0.24,1.49,0.00,22.26,27.50,30.07,4.89,27.63,1025.43,2029.99,2835.23,2893.70,3141.79,350.14,351.69,8.24,0000 0000 0000 0000 000000
2015-02-18 12:40:20,0.26,1.49,0.00,22.25,27.50,30.07,4.84,27.71,1025.43,2029.99,2832.45,2891.78,3139.63,350.28,351.81,8.27,0000 0000 0000 0000 000000
2015-02-18 12:45:21,0.25,1.50,0.00,22.23,27.48,30.01,4.83,27.65,1025.43,2029.99,2829.72,2889.79,3137.50,349.91,351.53,8.30,0000 0000 0000 0000 000000
2015-02-18 12:50:23,0.25,1.51,0.00,22.32,27.47,30.01,4.82,27.69,1025.42,2029.99,2827.01,2887.84,3135.49,349.64,351.15,8.33,0000 0000 0000 0000 000000
2015-02-18 12:55:24,0.23,1.52,0.00,22.33,27.47,30.07,4.84,27.57,1025.41,2029.99,2824.46,2886.01,3133.62,350.06,351.53,8.36,0000 0000 0000 0000 000000
2015-02-18 13:00:25,0.24,1.52,0.00,22.35,27.48,30.01,4.84,27.78,1025.41,2029.99,2821.82,2884.16,3131.63,350.13,351.65,8.39,0000 0000 0000 0000 000000
2015-02-18 13:05:27,0.24,1.53,0.00,22.42,27.50,30.02,4.83,27.57,1025.41,2029.99,2819.24,2882.29,3129.53,349.99,351.34,8.42,0000 0000 0000 0000 000000